{"data":{"norad_id":49206,"intl_designator":"2021-083W","name":"ONEWEB-0340","alt_names":[],"object_type":"PAYLOAD","status":"ACTIVE","operator":null,"country":"UK","launch_date":"2021-09-14","launch_site_code":"TYMSC","launch_vehicle":null,"mission":null,"orbit_class":"UNKNOWN","rcs_meters":null,"size_class":null,"mass_kg":null,"dimensions":null,"purposes":["comms"],"wikipedia_slug":null,"has_3d_model":false,"image_url":null,"decayed_at":null,"tle_current":{"epoch":"2026-09-20T03:08:28.840704Z","epoch_age_seconds":57680,"freshness":"FRESH","line1":"1 49206U 21083W   26263.13088936 -.00000272  00000+0 -72246-3 0  9998","line2":"2 49206  87.9164 316.5932 0002033 102.7202 257.4158 13.18685466242489","mean_motion":13.18685466,"eccentricity":0.0002033,"inclination_deg":87.9164,"raan_deg":316.5932,"arg_perigee_deg":102.7202,"mean_anomaly_deg":257.4158,"bstar":-0.00072246,"rev_number":24248,"period_min":109.19965656162,"perigee_km":1188.2066194906,"apogee_km":1191.2837203809,"semimajor_km":7567.8821699358,"source":"CELESTRAK","updated_at":"2026-09-20T09:00:44.664558Z"}}}